Flag for Canada Weather past 2 weeks in Qikiqtarjuaq, Nunavut Territory, Canada

Now
36 °F

Fog.


Feels Like: 33 °F
Forecast: 35 / 39 °F
Wind: 3 mph from South

Location: Broughton Island Airport

Current Time: Sep 19, 2014 at 6:49:04 AM

Latest Report: Sep 19, 2014 at 6:01 AM


Visibility: 2 mi

Pressure: 29.74 "Hg

Humidity: 100%

Dew point: 36 °F

Location of QikiqtarjuaqLocation

Historic Weather in Qikiqtarjuaq — Graph

°F

Qikiqtarjuaq temperature yesterday

Maximum temperature yesterday: 41 °F (at 3:00 AM)
Minimum temperature yesterday: 39 °F (at 12:00 AM)
Average temperature yesterday: 40 °F

Past Weeks' High & Low Weather Summary

 TemperatureHumidityPressure
High45 °F (Sep 15, 3:00 PM)100% (Sep 7, 5:54 AM)29.79 "Hg (Sep 7, 5:54 AM)
Low28 °F (Sep 15, 4:00 AM)34% (Sep 14, 3:00 PM)29.32 "Hg (Sep 11, 1:00 AM)
Average37 °F81%29.63 "Hg
* Reported Sep 4 5:00 AM — Sep 19 5:59 AM, Qikiqtarjuaq, Weather by CustomWeather, © 2014

Note: Actual official high and low records may vary slightly from our data, if they occured in-between our weather recording intervals... More about our weather records

Advertising

Qikiqtarjuaq weather history for previous 24 hours

 ConditionsComfort  
Time TempWeatherWind HumidityBarometerVisibility
5:59 AM
Sep 19
36 °FFog.2 mph93%29.74 "Hg1 mi
5:00 AM36 °FFog.5 mph100%29.72 "Hg2 mi
4:59 AM36 °FFog.5 mph100%29.72 "Hg2 mi
4:00 AM36 °FMostly cloudy.8 mph100%29.73 "Hg9 mi
3:00 AM36 °FPassing clouds.3 mph100%29.72 "Hg9 mi
2:00 AM37 °FOvercast.5 mph93%29.71 "Hg9 mi
1:00 AM37 °FMostly cloudy.5 mph93%29.71 "Hg9 mi
12:00 AM39 °FOvercast.5 mph87%29.72 "Hg9 mi
11:01 PM
Sep 18
41 °FMostly cloudy.9 mph81%29.71 "Hg9 mi
10:04 PM41 °FMostly cloudy.5 mph81%29.72 "Hg9 mi
9:00 PM39 °FOvercast.6 mph87%29.72 "Hg9 mi
8:00 PM39 °FMostly cloudy.5 mph93%29.72 "Hg9 mi
7:00 PM39 °FOvercast.10 mph93%29.72 "Hg9 mi
6:00 PM39 °FMore clouds than sun.8 mph93%29.71 "Hg15 mi
5:00 PM39 °FLight rain. Mostly cloudy.7 mph93%29.71 "Hg10 mi
4:00 PM41 °FBroken clouds.5 mph87%29.71 "Hg15 mi
3:00 PM41 °FLight rain. Mostly cloudy.3 mph87%29.72 "Hg15 mi
2:00 PM41 °FBroken clouds.5 mph87%29.72 "Hg15 mi
1:00 PM41 °FBroken clouds.5 mph87%29.72 "Hg15 mi
12:00 PM39 °FDrizzle. Fog.3 mph100%29.72 "Hg6 mi
11:00 AM39 °FDrizzle. Fog.5 mph93%29.72 "Hg4 mi
10:00 AM39 °FDrizzle. Fog.3 mph93%29.73 "Hg3 mi
9:00 AM39 °FDrizzle. Fog.8 mph93%29.74 "Hg3 mi
8:00 AM39 °FMostly cloudy.15 mph93%29.75 "Hg9 mi
7:57 AM39 °FMostly cloudy.14 mph93%29.75 "Hg9 mi
7:00 AM39 °FLight rain. More clouds than sun.17 mph93%29.75 "Hg9 mi
6:00 AM39 °FOvercast.18 mph93%29.75 "Hg9 mi
Weather by CustomWeather, © 2014

See weather overviewHow to use our weather pages